Terminal Aerodrome Forecast
Issued by NWS

Home | Current Version | Previous Version | Text Only | Print | Product List | Glossary On
Versions: 1 2 3 4 5 6 7 8 9 10 11 12 13 14 15 16 17 18 19 20 21 22 23 24 25 26 27 28 29 30 31 32 33 34 35 36 37 38 39 40 41 42 43 44 45 46 47
000
FTUS41 KBOX 010704 AAA
TAFMHT
TAF AMD
KMHT 010704Z 0107/0206 00000KT 1/2SM FG VV002
      TEMPO 0107/0111 1/4SM FG VV002
     FM011200 VRB03KT P6SM FEW250
     FM011800 19007KT P6SM BKN050
     FM020300 VRB03KT P6SM BKN140=

USA.gov is the U.S. government's official web portal to all federal, state and local government web resources and services.